| time (UTC) | temp F | wind direction | speed MPH | gust MPH | rain 1hr in | rain 24hr in | rain mn in | humidity % | barometer mb |
| 20260905111030 | 76 | 0 | 0.0 | 0.0 | 0.00 | 0.00 | 0.00 | 66 | 1015.0 |
| 20260905110030 | 76 | 0 | 0.0 | 0.0 | 0.00 | 0.00 | 0.00 | 66 | 1015.0 |
| 20260905105032 | 76 | 0 | 0.0 | 0.0 | 0.00 | 0.00 | 0.00 | 65 | 1015.0 |
| 20260905104032 | 77 | 0 | 0.0 | 0.0 | 0.00 | 0.00 | 0.00 | 64 | 1015.0 |
| 20260905103049 | 77 | 0 | 0.0 | 0.0 | 0.00 | 0.00 | 0.00 | 62 | 1014.9 |
| 20260905102032 | 78 | 0 | 0.0 | 0.0 | 0.00 | 0.00 | 0.00 | 61 | 1014.9 |
| 20260905101032 | 78 | 0 | 0.0 | 0.0 | 0.00 | 0.00 | 0.00 | 60 | 1015.0 |
| 20260905100030 | 78 | 0 | 0.0 | 0.0 | 0.00 | 0.00 | 0.00 | 59 | 1015.0 |
| 20260905095032 | 78 | 0 | 0.0 | 0.0 | 0.00 | 0.00 | 0.00 | 59 | 1015.0 |
| 20260905094106 | 78 | 0 | 0.0 | 0.0 | 0.00 | 0.00 | 0.00 | 60 | 1015.1 |
| 20260905093032 | 78 | 0 | 0.0 | 0.0 | 0.00 | 0.00 | 0.00 | 60 | 1015.2 |
| 20260905092032 | 78 | 0 | 0.0 | 0.0 | 0.00 | 0.00 | 0.00 | 60 | 1015.2 |
| 20260905091032 | 78 | 0 | 0.0 | 0.0 | 0.00 | 0.00 | 0.00 | 59 | 1014.9 |
| 20260905090032 | 79 | 0 | 0.0 | 0.0 | 0.00 | 0.00 | 0.00 | 58 | 1014.9 |
| 20260905085030 | 79 | 0 | 0.0 | 0.0 | 0.00 | 0.00 | 0.00 | 59 | 1014.9 |
| 20260905084032 | 79 | 0 | 0.0 | 0.0 | 0.00 | 0.00 | 0.00 | 60 | 1015.1 |
| 20260905083032 | 79 | 0 | 0.0 | 0.0 | 0.00 | 0.00 | 0.00 | 60 | 1015.3 |
| 20260905082049 | 79 | 0 | 0.0 | 0.0 | 0.00 | 0.00 | 0.00 | 60 | 1015.3 |
| 20260905081032 | 80 | 0 | 0.0 | 0.0 | 0.00 | 0.00 | 0.00 | 60 | 1015.3 |
| 20260905080032 | 80 | 0 | 0.0 | 0.0 | 0.00 | 0.00 | 0.00 | 59 | 1015.2 |
| 20260905075032 | 80 | 0 | 0.0 | 0.0 | 0.00 | 0.00 | 0.00 | 58 | 1015.2 |
| 20260905074032 | 80 | 0 | 0.0 | 0.0 | 0.00 | 0.00 | 0.00 | 58 | 1015.3 |
| 20260905073032 | 81 | 0 | 0.0 | 0.0 | 0.00 | 0.00 | 0.00 | 57 | 1015.3 |
| 20260905072049 | 81 | 0 | 0.0 | 0.0 | 0.00 | 0.00 | 0.00 | 56 | 1015.3 |
| 20260905071032 | 81 | 0 | 0.0 | 0.0 | 0.00 | 0.00 | 0.00 | 55 | 1015.2 |
| 20260905070032 | 82 | 0 | 0.0 | 0.0 | 0.00 | 0.00 | 0.00 | 54 | 1015.2 |
| 20260905065032 | 82 | 0 | 0.0 | 0.0 | 0.00 | 0.00 | 0.00 | 53 | 1015.2 |
| 20260905064030 | 82 | 0 | 0.0 | 0.0 | 0.00 | 0.00 | 0.00 | 52 | 1015.3 |
| 20260905063030 | 83 | 0 | 0.0 | 0.0 | 0.00 | 0.00 | 0.00 | 51 | 1015.0 |
| 20260905062032 | 83 | 0 | 0.0 | 0.0 | 0.00 | 0.00 | 0.00 | 50 | 1015.0 |
| 20260905061032 | 83 | 0 | 0.0 | 0.0 | 0.00 | 0.00 | 0.00 | 49 | 1015.0 |
| 20260905060106 | 83 | 76 | 0.0 | 1.0 | 0.00 | 0.00 | 0.00 | 50 | 1015.0 |
| 20260905055032 | 83 | 0 | 0.0 | 0.0 | 0.00 | 0.00 | 0.00 | 51 | 1015.0 |
| 20260905054049 | 83 | 0 | 0.0 | 0.0 | 0.00 | 0.00 | 0.00 | 50 | 1014.9 |
| 20260905053030 | 83 | 0 | 0.0 | 0.0 | 0.00 | 0.00 | 0.00 | 50 | 1014.8 |
| 20260905052032 | 83 | 0 | 0.0 | 0.0 | 0.00 | 0.00 | 0.00 | 49 | 1014.8 |
| 20260905051032 | 84 | 0 | 0.0 | 0.0 | 0.00 | 0.00 | 0.00 | 48 | 1015.0 |
| 20260905050032 | 84 | 0 | 0.0 | 0.0 | 0.00 | 0.00 | 0.00 | 45 | 1014.9 |
| 20260905045106 | 85 | 0 | 0.0 | 0.0 | 0.00 | 0.00 | 0.00 | 45 | 1014.9 |
| 20260905044032 | 85 | 0 | 0.0 | 0.0 | 0.00 | 0.00 | 0.00 | 45 | 1014.7 |
| 20260905043032 | 85 | 0 | 0.0 | 0.0 | 0.00 | 0.00 | 0.00 | 45 | 1014.8 |
| 20260905042030 | 86 | 0 | 0.0 | 0.0 | 0.00 | 0.00 | 0.00 | 44 | 1014.8 |
| 20260905041032 | 86 | 0 | 0.0 | 0.0 | 0.00 | 0.00 | 0.00 | 43 | 1014.8 |
| 20260905040049 | 87 | 0 | 0.0 | 0.0 | 0.00 | 0.00 | 0.00 | 42 | 1014.7 |
| 20260905035032 | 87 | 0 | 0.0 | 0.0 | 0.00 | 0.00 | 0.00 | 42 | 1014.7 |
| 20260905034032 | 87 | 271 | 0.0 | 3.0 | 0.00 | 0.00 | 0.00 | 41 | 1014.6 |
| 20260905033032 | 87 | 0 | 0.0 | 0.0 | 0.00 | 0.00 | 0.00 | 41 | 1014.3 |
| 20260905032049 | 88 | 0 | 0.0 | 0.0 | 0.00 | 0.00 | 0.00 | 39 | 1014.3 |
| 20260905031030 | 88 | 0 | 0.0 | 0.0 | 0.00 | 0.00 | 0.00 | 38 | 1014.1 |
| 20260905030032 | 89 | 0 | 0.0 | 0.0 | 0.00 | 0.00 | 0.00 | 37 | 1014.1 |
| 20260905025032 | 89 | 271 | 0.0 | 1.0 | 0.00 | 0.00 | 0.00 | 37 | 1014.1 |
| 20260905024049 | 89 | 0 | 0.0 | 0.0 | 0.00 | 0.00 | 0.00 | 35 | 1013.8 |
| 20260905023032 | 90 | 0 | 0.0 | 0.0 | 0.00 | 0.00 | 0.00 | 34 | 1013.4 |
| 20260905022032 | 90 | 67 | 0.0 | 1.0 | 0.00 | 0.00 | 0.00 | 33 | 1013.4 |
| 20260905021032 | 90 | 67 | 0.0 | 1.0 | 0.00 | 0.00 | 0.00 | 33 | 1013.6 |
| 20260905020030 | 91 | 67 | 0.0 | 1.0 | 0.00 | 0.00 | 0.00 | 33 | 1013.5 |
| 20260905015032 | 92 | 66 | 0.0 | 1.0 | 0.00 | 0.00 | 0.00 | 32 | 1013.5 |
| 20260905014032 | 92 | 69 | 1.0 | 3.0 | 0.00 | 0.00 | 0.00 | 32 | 1013.5 |
| 20260905013032 | 93 | 74 | 0.0 | 3.0 | 0.00 | 0.00 | 0.00 | 31 | 1013.3 |
| 20260905012032 | 93 | 271 | 2.0 | 6.0 | 0.00 | 0.00 | 0.00 | 30 | 1013.3 |
| 20260905011049 | 94 | 270 | 1.0 | 6.0 | 0.00 | 0.00 | 0.00 | 30 | 1013.3 |
| 20260905010030 | 94 | 75 | 4.0 | 10.0 | 0.00 | 0.00 | 0.00 | 29 | 1013.2 |
| 20260905005047 | 95 | 85 | 3.0 | 10.0 | 0.00 | 0.00 | 0.00 | 29 | 1013.2 |
| 20260905004049 | 95 | 280 | 3.0 | 9.0 | 0.00 | 0.00 | 0.00 | 29 | 1013.1 |
| 20260905003032 | 95 | 81 | 3.0 | 12.0 | 0.00 | 0.00 | 0.00 | 29 | 1012.8 |
| 20260905002032 | 95 | 74 | 4.0 | 13.0 | 0.00 | 0.00 | 0.00 | 29 | 1012.8 |
| 20260905001032 | 96 | 271 | 4.0 | 12.0 | 0.00 | 0.00 | 0.00 | 29 | 1012.7 |
| 20260905000032 | 96 | 280 | 2.0 | 9.0 | 0.00 | 0.00 | 0.00 | 29 | 1012.5 |
| 20260904235030 | 96 | 84 | 1.0 | 6.0 | 0.00 | 0.00 | 0.00 | 30 | 1012.5 |
| 20260904234030 | 96 | 87 | 4.0 | 10.0 | 0.00 | 0.00 | 0.00 | 30 | 1012.8 |
| 20260904233032 | 96 | 86 | 6.0 | 10.0 | 0.00 | 0.00 | 0.00 | 30 | 1012.8 |
| 20260904232049 | 96 | 295 | 2.0 | 9.0 | 0.00 | 0.00 | 0.00 | 30 | 1012.8 |
| 20260904231032 | 96 | 66 | 4.0 | 16.0 | 0.00 | 0.00 | 0.00 | 30 | 1012.9 |
| 20260904230032 | 96 | 282 | 4.0 | 9.0 | 0.00 | 0.00 | 0.00 | 30 | 1013.0 |
| 20260904225032 | 96 | 87 | 1.0 | 7.0 | 0.00 | 0.00 | 0.00 | 30 | 1013.0 |
| 20260904224030 | 96 | 79 | 5.0 | 9.0 | 0.00 | 0.00 | 0.00 | 29 | 1013.1 |
| 20260904223030 | 96 | 87 | 4.0 | 9.0 | 0.00 | 0.00 | 0.00 | 28 | 1013.0 |
| 20260904222032 | 96 | 281 | 3.0 | 9.0 | 0.00 | 0.00 | 0.00 | 28 | 1013.0 |
| 20260904221032 | 95 | 68 | 2.0 | 9.0 | 0.00 | 0.00 | 0.00 | 27 | 1013.4 |
| 20260904220032 | 95 | 88 | 5.0 | 10.0 | 0.00 | 0.00 | 0.00 | 28 | 1013.8 |
| 20260904215032 | 95 | 67 | 3.0 | 10.0 | 0.00 | 0.00 | 0.00 | 30 | 1013.8 |
| 20260904214032 | 95 | 273 | 3.0 | 12.0 | 0.00 | 0.00 | 0.00 | 31 | 1013.8 |
| 20260904213030 | 95 | 286 | 5.0 | 12.0 | 0.00 | 0.00 | 0.00 | 32 | 1013.7 |
| 20260904212032 | 95 | 84 | 4.0 | 13.0 | 0.00 | 0.00 | 0.00 | 33 | 1013.7 |
| 20260904211032 | 95 | 294 | 1.0 | 9.0 | 0.00 | 0.00 | 0.00 | 34 | 1014.0 |
| 20260904210049 | 94 | 74 | 1.0 | 6.0 | 0.00 | 0.00 | 0.00 | 34 | 1014.1 |
| 20260904205032 | 94 | 66 | 4.0 | 12.0 | 0.00 | 0.00 | 0.00 | 34 | 1014.1 |
| 20260904204032 | 94 | 272 | 2.0 | 10.0 | 0.00 | 0.00 | 0.00 | 35 | 1014.2 |
| 20260904203032 | 94 | 41 | 2.0 | 9.0 | 0.00 | 0.00 | 0.00 | 35 | 1014.3 |
| 20260904202030 | 94 | 270 | 3.0 | 9.0 | 0.00 | 0.00 | 0.00 | 36 | 1014.3 |
| 20260904201032 | 93 | 26 | 2.0 | 9.0 | 0.00 | 0.00 | 0.00 | 34 | 1014.7 |
| 20260904200032 | 93 | 85 | 0.0 | 3.0 | 0.00 | 0.00 | 0.00 | 35 | 1014.9 |
| 20260904195032 | 92 | 353 | 0.0 | 1.0 | 0.00 | 0.00 | 0.00 | 37 | 1014.9 |
| 20260904194032 | 92 | 63 | 4.0 | 7.0 | 0.00 | 0.00 | 0.00 | 37 | 1015.4 |
| 20260904193032 | 91 | 82 | 5.0 | 7.0 | 0.00 | 0.00 | 0.00 | 40 | 1015.5 |
| 20260904192030 | 91 | 37 | 2.0 | 9.0 | 0.00 | 0.00 | 0.00 | 43 | 1015.5 |
| 20260904191030 | 91 | 57 | 1.0 | 4.0 | 0.00 | 0.00 | 0.00 | 42 | 1015.5 |
| 20260904190032 | 91 | 73 | 3.0 | 7.0 | 0.00 | 0.00 | 0.00 | 43 | 1015.8 |
| 20260904185049 | 90 | 38 | 2.0 | 10.0 | 0.00 | 0.00 | 0.00 | 44 | 1015.8 |
| 20260904184032 | 90 | 24 | 3.0 | 9.0 | 0.00 | 0.00 | 0.00 | 45 | 1016.2 |
| 20260904182032 | 89 | 75 | 2.0 | 9.0 | 0.00 | 0.00 | 0.00 | 48 | 1016.3 |
| 20260904181047 | 89 | 46 | 2.0 | 7.0 | 0.00 | 0.00 | 0.00 | 49 | 1016.6 |
| 20260904180030 | 88 | 340 | 3.0 | 10.0 | 0.00 | 0.00 | 0.00 | 50 | 1016.7 |
| 20260904175032 | 88 | 343 | 2.0 | 7.0 | 0.00 | 0.00 | 0.00 | 51 | 1016.7 |
| 20260904174032 | 87 | 11 | 4.0 | 10.0 | 0.00 | 0.00 | 0.00 | 52 | 1016.8 |
| 20260904173032 | 87 | 343 | 5.0 | 9.0 | 0.00 | 0.00 | 0.00 | 52 | 1016.9 |
| 20260904172032 | 87 | 346 | 4.0 | 10.0 | 0.00 | 0.00 | 0.00 | 53 | 1016.9 |
| 20260904171049 | 86 | 9 | 4.0 | 12.0 | 0.00 | 0.00 | 0.00 | 53 | 1016.9 |
| 20260904170030 | 86 | 358 | 3.0 | 10.0 | 0.00 | 0.00 | 0.00 | 54 | 1017.1 |
| 20260904165032 | 85 | 9 | 4.0 | 10.0 | 0.00 | 0.00 | 0.00 | 55 | 1017.1 |
| 20260904164032 | 85 | 351 | 7.0 | 13.0 | 0.00 | 0.00 | 0.00 | 56 | 1017.0 |
| 20260904163032 | 85 | 6 | 4.0 | 10.0 | 0.00 | 0.00 | 0.00 | 57 | 1016.9 |
| 20260904162032 | 84 | 325 | 6.0 | 21.0 | 0.00 | 0.00 | 0.00 | 58 | 1016.9 |
| 20260904161032 | 84 | 2 | 4.0 | 10.0 | 0.00 | 0.00 | 0.00 | 59 | 1016.7 |
| 20260904160032 | 83 | 354 | 5.0 | 13.0 | 0.00 | 0.00 | 0.00 | 61 | 1016.9 |
| 20260904155049 | 82 | 345 | 4.0 | 10.0 | 0.00 | 0.00 | 0.00 | 63 | 1016.9 |
| 20260904154032 | 82 | 356 | 4.0 | 13.0 | 0.00 | 0.00 | 0.00 | 63 | 1016.6 |
| 20260904153032 | 82 | 353 | 4.0 | 9.0 | 0.00 | 0.00 | 0.00 | 63 | 1016.6 |
| 20260904152032 | 82 | 351 | 5.0 | 10.0 | 0.00 | 0.00 | 0.00 | 63 | 1016.6 |
| 20260904151032 | 82 | 324 | 5.0 | 10.0 | 0.00 | 0.00 | 0.00 | 63 | 1016.6 |
| 20260904150032 | 81 | 331 | 5.0 | 9.0 | 0.00 | 0.00 | 0.00 | 64 | 1016.6 |
| 20260904145032 | 81 | 358 | 6.0 | 12.0 | 0.00 | 0.00 | 0.00 | 65 | 1016.6 |
| 20260904144030 | 80 | 331 | 3.0 | 10.0 | 0.00 | 0.00 | 0.00 | 66 | 1016.7 |
| 20260904143032 | 80 | 0 | 4.0 | 12.0 | 0.00 | 0.00 | 0.00 | 67 | 1016.6 |
| 20260904142049 | 79 | 3 | 2.0 | 7.0 | 0.00 | 0.00 | 0.00 | 68 | 1016.6 |
| 20260904141032 | 79 | 339 | 3.0 | 7.0 | 0.00 | 0.00 | 0.00 | 68 | 1016.5 |
| 20260904140032 | 78 | 15 | 3.0 | 9.0 | 0.00 | 0.00 | 0.00 | 69 | 1016.4 |
| 20260904135049 | 78 | 1 | 3.0 | 9.0 | 0.00 | 0.00 | 0.00 | 70 | 1016.4 |
| 20260904134032 | 78 | 21 | 3.0 | 7.0 | 0.00 | 0.00 | 0.00 | 70 | 1016.3 |
| 20260904133030 | 78 | 14 | 3.0 | 6.0 | 0.00 | 0.00 | 0.00 | 70 | 1016.1 |
| 20260904132106 | 78 | 28 | 1.0 | 3.0 | 0.00 | 0.00 | 0.00 | 69 | 1016.1 |
| 20260904131032 | 78 | 357 | 2.0 | 7.0 | 0.00 | 0.00 | 0.00 | 69 | 1015.4 |
| 20260904130030 | 78 | 9 | 4.0 | 7.0 | 0.00 | 0.00 | 0.00 | 69 | 1015.4 |
| 20260904125032 | 79 | 25 | 1.0 | 3.0 | 0.00 | 0.00 | 0.00 | 68 | 1015.4 |
| 20260904124032 | 79 | 13 | 4.0 | 9.0 | 0.00 | 0.00 | 0.00 | 68 | 1015.0 |
| 20260904123032 | 79 | 354 | 3.0 | 7.0 | 0.00 | 0.00 | 0.00 | 68 | 1014.9 |
| 20260904122030 | 79 | 351 | 3.0 | 10.0 | 0.00 | 0.00 | 0.00 | 68 | 1014.9 |
| 20260904121032 | 79 | 351 | 2.0 | 7.0 | 0.00 | 0.00 | 0.00 | 67 | 1014.2 |
| 20260904120032 | 79 | 6 | 4.0 | 10.0 | 0.00 | 0.00 | 0.00 | 66 | 1014.2 |
| 20260904115032 | 79 | 13 | 4.0 | 9.0 | 0.00 | 0.00 | 0.00 | 66 | 1014.2 |
| 20260904114032 | 79 | 17 | 2.0 | 4.0 | 0.00 | 0.00 | 0.00 | 66 | 1014.2 |
| 20260904113032 | 80 | 346 | 1.0 | 7.0 | 0.00 | 0.00 | 0.00 | 65 | 1014.1 |
| 20260904112030 | 80 | 354 | 4.0 | 9.0 | 0.00 | 0.00 | 0.00 | 65 | 1014.1 |